User: anonymous   Login
Location: West Cummington
(42.4920°N, 72.9680°W)
Time: 09:48:19
(UTC-04:00)
Language:

Cosmos 841 Rocket - Orbit

View from above orbital plane
View from above orbital plane
View from above satellite
View from above satellite

Ground track
Ground track

The orbit data is extracted from the following two-line orbital elements,

1 09023U 76069B   15146.17732536  .00000103  00000-0  41492-4 0  9991
2 09023 074.0452 046.3226 0016923 035.5522 324.6757 14.39380758 36476
Epoch (UTC): 26 May 2015 04:15:20
Eccentricity: 0.0016923
inclination: 74.0452°
perigee height: 748 km
apogee height: 772 km
right ascension of ascending node: 46.3226°
argument of perigee: 35.5522°
revolutions per day: 14.39380758
mean anomaly at epoch: 324.6757°
orbit number at epoch: 3647

The dashed part of the orbit path shows where the satellite is in the earth's shadow,  

DLR